Вернуться в каталог

DELTA 1 DEB

АктивенUNKNOWN
NORAD 7015·DEBRIS·🇺🇸 United States

Запущен Nov 6, 1973 с Vandenberg Space Force Base

Loading…

Ближайшие Пролёты (ближайшие 24 часа)

TLE

СвежийSource: Space-Track

Эпоха: Sep 14, 2026, 15:41 UTC

1 07015U 73086F   26257.65348853  .00000005  00000-0  62673-3 0  9993
2 07015 101.7858  33.7798 0401357 225.9665 144.1105 11.66273646250248

Отслеживайте DELTA 1 DEB в реальном времени с AllMySat

Download on the App Store